Regional Weather Roundup
Issued by NWS

Home | Current Version | Previous Version | Text Only | Print | Product List | Glossary On
Versions: 1 2 3 4 5 6 7 8 9 10 11 12 13 14 15 16 17 18 19 20 21 22 23 24 25 26 27
000
ASUS44 KJAN 210410
RWRMS

MISSISSIPPI HOURLY WEATHER ROUNDUP
NATIONAL WEATHER SERVICE JACKSON MS
1100 PM CDT FRI APR 20 2018

NOTE: "FAIR: INDICATES FEW OR NO CLOUDS BELOW 12,000 FEET WITH NO
SIGNIFICANT WEATHER AND/OR OBSTRUCTIONS TO VISIBILITY.

MSZ001>002-007>008-010>013-018>021-025>028-034>036-210500-
NORTHWEST MISSISSIPPI

CITY           SKY/WX    TMP DP  RH WIND       PRES   REMARKS
BATESVILLE       N/A    N/A N/A N/A MISG        N/A
CLARKSDALE     CLEAR     57  46  67 CALM      30.23S
CLEVELAND      FAIR      58  41  53 E5        30.22S
GREENWOOD      FAIR      51  45  79 CALM      30.22S
GREENVILLE     FAIR      52  40  63 E5        30.21S
OXFORD         FAIR      55  34  44 E5        30.25R
TUNICA           N/A     52  39  62 E3        30.24F
WINONA         FAIR      47  46  97 CALM      30.23S
$$

MSZ003>006-009-014>017-022>024-029>033-037>039-210500-
NORTHEAST MISSISSIPPI

CITY           SKY/WX    TMP DP  RH WIND       PRES   REMARKS
ABERDEEN         N/A     50  43  76 CALM      30.26R
COLUMBUS AFB   FAIR      50  42  73 CALM      30.23R
CORINTH        FAIR      50  37  62 CALM      30.26S
GOLDN TRIANGLE FAIR      56  38  50 E5        30.24R
STARKVILLE     FAIR      50  41  71 CALM      30.25R
TUPELO         FAIR      59  33  37 E3        30.24S
$$

MSZ040-058-210500-
CENTRAL MISSISSIPPI

CITY           SKY/WX    TMP DP  RH WIND       PRES   REMARKS
JACKSON INTL   FAIR      49  45  86 CALM      30.20S
JACKSON HAWKNS FAIR      56  45  66 NE6       30.21S
MADISON        FAIR      50  46  87 CALM      30.21S
MERIDIAN KEY   FAIR      50  46  86 CALM      30.22S
MERIDIAN NAS   FAIR      51  45  79 CALM      30.23R
RAYMOND        FAIR      48  48 100 CALM      30.20S
VICKSBURG VKS  CLEAR     50  46  87 CALM      30.21S
$$

MSZ059>079-210500-
SOUTH MISSISSIPPI

CITY           SKY/WX    TMP DP  RH WIND       PRES   REMARKS
COLUMBIA       FAIR      48  46  93 CALM      30.24S
HATTIESBURG    FAIR      51  49  92 CALM      30.21S
LAUREL         FAIR      50  50 100 CALM      30.21S
MCCOMB         FAIR      51  46  83 CALM      30.19S
NATCHEZ        FAIR      51  48  89 CALM      30.20S
PINE BELT      FAIR      49  47  93 CALM      30.21S
$$

MSZ080>082-210500-
COASTAL MISSISSIPPI

CITY           SKY/WX    TMP DP  RH WIND       PRES   REMARKS
BILOXI         FAIR      58  51  78 N3        30.18S
PASCAGOULA     FAIR      51  48  89 CALM      30.18S
GULFPORT       FAIR      55  50  83 CALM      30.18S
$$

LAZ007>009-015>016-023>026-210500-
NORTHEAST LOUISIANA

CITY           SKY/WX    TMP DP  RH WIND       PRES   REMARKS
BASTROP        FAIR      46  45  98 CALM      30.20F
TALLULAH/VBURG FAIR      53  50  89 CALM      30.20F
VIDALIA        FAIR      53  48  83 CALM      30.19S
$$




USA.gov is the U.S. government's official web portal to all federal, state and local government web resources and services.